[[{"header":{"parameterUnit":"m.s-1","parameterCategory":1,"la1":30.2991,"la2":30.254,"lo1":-89.0895,"lo2":-89.0444,"dy":0.0017,"dx":0.0017,"nx":28,"ny":28,"refTime":"2025-03-20T09:00:00:Z","depth":0,"parameterNumber":2,"parameterNumberName":"U-component_of_WINDS"},"data":[0,0,0,0,0,0,0,0,0,0,0,0,0,0,0,0,0,0,0,0,0,0,0,0,0,0,0,0,0,0,0,0,0,0,0,0,0,0,0,0,0,0,0,0,0,0,0,0,0,0,0,0,0,0,0,0,0,0,5.9759,5.976,0,5.9844,5.9845,5.9846,5.9815,5.9813,5.9811,5.9809,5.9895,5.9899,5.9903,0,0,0,0,0,0,0,0,0,0,0,0,0,5.9569,5.9572,5.9759,5.976,5.9761,5.9844,5.9846,5.9847,5.9815,5.9813,5.981,5.9808,5.9894,5.9898,5.9903,0,0,0,0,0,0,0,0,0,0,0,0,0,5.9653,5.9574,5.9759,5.9755,5.9756,5.9844,5.9846,5.9847,5.9815,5.9812,5.981,5.9807,5.9892,5.9898,5.9904,6.0,0,0,5.9923,5.9925,0,0,0,0,0,0,0,0,5.9648,5.966,5.9755,5.9756,5.9756,5.9816,5.981,5.9898,5.9816,5.9793,5.9809,5.9805,5.9871,5.9879,5.9901,6.0004,6.0008,5.9923,5.9927,5.993,5.9931,0,0,0,0,0,0,0,5.9642,5.9656,5.9793,5.9756,5.9757,5.975,5.9758,5.9827,5.9847,5.9795,5.9792,5.9803,5.9871,5.9895,5.9903,6.0009,5.9923,5.9929,5.9932,5.9935,6.0199,6.0202,0,0,0,0,0,0,5.9636,5.9651,5.979,5.9795,5.9694,5.9756,5.9765,5.98,5.9846,5.9851,5.9806,5.9801,5.9886,5.9896,5.9906,6.0023,5.993,5.9935,5.9939,6.0196,6.02,6.0203,0,0,0,0,0,0,5.9632,5.9649,5.9787,5.9723,5.974,5.9762,5.9801,5.9803,5.9827,5.9855,5.9858,5.9827,5.9884,5.9897,5.9978,6.0026,5.9938,5.9944,6.0192,6.0197,6.0202,6.0258,0,0,0,0,0,0,5.9627,5.9647,5.9684,5.9724,5.9743,5.9857,5.9804,5.9807,5.9838,5.9833,5.9875,5.9879,5.9883,5.9969,5.9984,6.0033,5.9949,6.0188,6.0194,6.02,6.0252,6.0264,6.0275,0,0,0,0,0,5.962,5.9695,5.9686,5.9703,5.9789,5.986,5.9871,5.9874,5.9842,5.9879,5.9897,5.9878,6.0018,5.9977,5.9994,6.0045,6.0185,6.0192,6.0199,6.0247,6.0262,6.0275,0,0,0,0,0,0,5.9659,5.97,5.969,5.9781,5.9817,5.9854,5.9901,5.9889,5.9935,5.9929,5.993,5.994,6.0024,6.0042,5.9996,6.0142,6.0097,6.0108,6.0127,6.0141,6.0153,6.0146,5.9954,0,0,0,0,0,5.9678,5.9732,5.9765,5.9842,5.9861,5.9878,5.9909,5.9909,5.9946,5.9961,5.9985,6.0022,6.0075,6.0109,6.0159,6.0255,6.0264,6.0299,6.031,6.0319,6.0329,6.0384,6.04,6.0228,6.0228,6.0228,0,0,5.9718,5.9748,5.9781,5.9851,5.9879,5.9936,5.9891,5.9952,5.9994,5.997,6.0048,6.0068,6.0109,6.0199,6.0239,6.0217,6.0379,6.0329,6.0336,6.0341,6.0393,6.0409,6.0424,6.0233,6.0232,6.0231,0,0,5.982,5.9847,5.9915,5.9945,5.9989,6.0001,6.0017,6.0057,6.0069,6.0148,6.0132,6.0182,6.0272,6.0304,6.0331,6.0449,6.0434,6.0465,6.0525,6.0578,6.0592,6.0604,6.0647,6.0662,6.0475,6.0475,6.0475,0,5.9864,5.9949,5.9952,6.0015,6.0047,6.0029,6.0099,6.0128,6.0185,6.0208,6.0183,6.0297,6.0324,6.0422,6.0451,6.0473,6.0493,6.046,6.0589,6.0601,6.0613,6.0654,6.067,6.0478,6.0478,6.0478,6.0477,0,6.0001,6.0061,6.011,6.0168,6.0206,6.0272,6.0285,6.0323,6.032,6.0335,6.0417,6.0449,6.0506,6.0529,6.0526,6.0627,6.0612,6.0588,6.0542,6.0633,6.0672,6.0687,6.0484,6.0482,6.0481,6.048,0,0,6.0128,6.0189,6.0207,6.0235,6.0283,6.0329,6.0396,6.0453,6.0486,6.0527,6.0583,6.0661,6.0641,6.0672,6.0673,6.0719,6.0813,6.069,6.0691,6.0713,6.0929,6.0947,6.0965,6.0803,6.0806,6.0809,6.0926,0,6.0235,6.0351,6.0358,6.0464,6.0519,6.0505,6.0563,6.06,6.0616,6.0666,6.0683,6.0739,6.0707,6.0726,6.0772,6.0792,6.0856,6.0783,6.0856,6.0859,6.0846,6.0985,6.1004,6.1112,6.0941,6.0943,6.0945,0,6.0374,6.0421,6.0534,6.0577,6.0601,6.0653,6.0707,6.0754,6.0797,6.0805,6.0842,6.0837,6.0906,6.0859,6.0954,6.0905,6.0935,6.095,6.0954,6.0961,6.0907,6.0996,6.1146,6.1163,6.0969,6.0967,6.0965,0,6.0457,6.0549,6.0628,6.0652,6.0704,6.0741,6.0765,6.0804,6.0839,6.0886,6.0909,6.0964,6.0994,6.1037,6.1047,6.1011,6.1144,6.1096,6.1153,6.1153,6.1181,6.1179,6.1339,6.1201,6.12,6.12,6.12,0,6.0575,6.0645,6.0666,6.0715,6.0793,6.0801,6.0878,6.0899,6.0935,6.0988,6.0979,6.1029,6.104,6.1093,6.1101,6.1181,6.1194,6.1203,6.1205,6.1204,6.1203,6.1224,6.1217,6.1205,6.1204,6.1203,6.1202,0,6.068,6.0698,6.0784,6.0827,6.084,6.0896,6.0933,6.0981,6.0997,6.1065,6.1081,6.1106,6.1168,6.1183,6.1257,6.1263,6.1357,6.1351,6.1343,6.1342,6.1399,6.1394,6.1578,6.1603,6.1448,6.1449,6.145,0,6.0755,6.0809,6.0859,6.0894,6.092,6.0977,6.1013,6.1023,6.1061,6.1115,6.1157,6.1218,6.1267,6.1368,6.1393,6.145,6.1445,6.1506,6.1453,6.1452,6.1447,6.1444,6.145,6.1516,6.1517,6.1519,6.152,0,6.0886,6.0893,6.0945,6.1002,6.1046,6.1091,6.1134,6.1163,6.118,6.1223,6.1287,6.1326,6.1402,6.1464,6.1522,6.1546,6.1537,6.1536,6.1553,6.1553,6.1546,6.1552,6.1371,6.1532,6.1531,6.153,6.1529,6.1529,6.0979,6.1027,6.107,6.113,6.1164,6.1205,6.1252,6.1275,6.1329,6.1393,6.1395,6.1466,6.1509,6.1586,6.1614,6.167,6.1651,6.1674,6.168,6.1686,6.1692,6.1538,6.168,6.168,6.168,6.1679,6.1679,0,6.1111,6.1139,6.1194,6.1255,6.1302,6.129,6.1338,6.1378,6.144,6.1482,6.1532,6.1606,6.1667,6.1698,6.1758,6.1797,6.1794,6.1812,6.1809,6.1816,6.1704,6.1685,6.1814,6.1814,6.1814,6.1814,6.1814,6.1814,6.1185,6.1265,6.1278,6.1376,6.1403,6.1473,6.1501,6.154,6.1573,6.1657,6.1708,6.1728,6.1766,6.1829,6.1885,6.1892,6.1915,6.1936,6.1942,6.1837,6.1823,6.181,6.1792,6.1941,6.1941,6.2048,6.2049,6.205]},{"header":{"parameterUnit":"m.s-1","parameterCategory":1,"la1":30.2991,"la2":30.254,"lo1":-89.0895,"lo2":-89.0444,"dy":0.0017,"dx":0.0017,"nx":28,"ny":28,"refTime":"2025-03-20T09:00:00:Z","depth":0,"parameterNumber":3,"parameterNumberName":"V-component_of_WINDS"},"data":[0,0,0,0,0,0,0,0,0,0,0,0,0,0,0,0,0,0,0,0,0,0,0,0,0,0,0,0,0,0,0,0,0,0,0,0,0,0,0,0,0,0,0,0,0,0,0,0,0,0,0,0,0,0,0,0,0,0,-6.4293,-6.4294,0,-6.4393,-6.4394,-6.4395,-6.4389,-6.4388,-6.4387,-6.4385,-6.4483,-6.4487,-6.4491,0,0,0,0,0,0,0,0,0,0,0,0,0,-6.4096,-6.4099,-6.4293,-6.4294,-6.4296,-6.4393,-6.4394,-6.4395,-6.439,-6.4388,-6.4386,-6.4385,-6.4482,-6.4486,-6.4491,0,0,0,0,0,0,0,0,0,0,0,0,0,-6.4187,-6.4101,-6.4293,-6.4305,-6.4307,-6.4393,-6.4394,-6.4396,-6.439,-6.4388,-6.4386,-6.4384,-6.448,-6.4486,-6.4492,-6.4571,0,0,-6.451,-6.4512,0,0,0,0,0,0,0,0,-6.4182,-6.4194,-6.4302,-6.4304,-6.4306,-6.4377,-6.436,-6.4454,-6.4391,-6.4358,-6.4385,-6.4383,-6.4449,-6.4457,-6.4481,-6.4576,-6.458,-6.451,-6.4514,-6.4516,-6.4518,0,0,0,0,0,0,0,-6.4175,-6.419,-6.4332,-6.4303,-6.4306,-6.4304,-6.4315,-6.4378,-6.4414,-6.4361,-6.4361,-6.4373,-6.445,-6.4475,-6.4483,-6.4581,-6.451,-6.4515,-6.4519,-6.4521,-6.4749,-6.4752,0,0,0,0,0,0,-6.4167,-6.4185,-6.4329,-6.4335,-6.4238,-6.431,-6.4321,-6.4356,-6.4414,-6.442,-6.4375,-6.4372,-6.4466,-6.4476,-6.4486,-6.4585,-6.4516,-6.4522,-6.4525,-6.4747,-6.475,-6.4752,0,0,0,0,0,0,-6.4163,-6.418,-6.4325,-6.426,-6.4279,-6.4315,-6.4354,-6.4359,-6.4384,-6.4424,-6.443,-6.4394,-6.4465,-6.4478,-6.4551,-6.4588,-6.4525,-6.453,-6.4744,-6.4748,-6.4751,-6.4781,0,0,0,0,0,0,-6.4157,-6.4178,-6.4209,-6.4261,-6.4282,-6.4389,-6.4357,-6.4363,-6.4395,-6.4393,-6.4444,-6.445,-6.4464,-6.4542,-6.4557,-6.4595,-6.4535,-6.4741,-6.4746,-6.475,-6.4777,-6.4785,-6.4793,0,0,0,0,0,-6.415,-6.4212,-6.4211,-6.4228,-6.4321,-6.4391,-6.4403,-6.4419,-6.4398,-6.4429,-6.4455,-6.4448,-6.4582,-6.455,-6.4566,-6.4607,-6.4738,-6.4744,-6.475,-6.4773,-6.4784,-6.4793,0,0,0,0,0,0,-6.4161,-6.4219,-6.4218,-6.4299,-6.4341,-6.439,-6.443,-6.4429,-6.4476,-6.4472,-6.4489,-6.4501,-6.4574,-6.4598,-6.4561,-6.4688,-6.4657,-6.4666,-6.467,-6.468,-6.4688,-6.468,-6.4539,0,0,0,0,0,-6.4174,-6.4227,-6.4273,-6.434,-6.4362,-6.4392,-6.4423,-6.4432,-6.4475,-6.4492,-6.4523,-6.4564,-6.4616,-6.4649,-6.4698,-6.4781,-6.4792,-6.4817,-6.4825,-6.4831,-6.4838,-6.4886,-6.4897,-6.4771,-6.4771,-6.4771,0,0,-6.4199,-6.4237,-6.4269,-6.4344,-6.4377,-6.4431,-6.4407,-6.4464,-6.4504,-6.45,-6.4572,-6.4597,-6.4644,-6.4722,-6.4758,-6.4744,-6.4876,-6.4838,-6.4843,-6.4847,-6.4893,-6.4905,-6.4915,-6.4775,-6.4774,-6.4774,0,0,-6.4272,-6.4306,-6.4367,-6.4402,-6.4453,-6.4474,-6.4489,-6.4539,-6.4556,-6.4629,-6.4628,-6.4675,-6.4763,-6.4798,-6.4826,-6.4917,-6.4913,-6.4932,-6.4973,-6.5019,-6.5029,-6.5038,-6.5071,-6.5083,-6.494,-6.494,-6.494,0,-6.4297,-6.4379,-6.4397,-6.4457,-6.449,-6.4492,-6.4553,-6.4586,-6.465,-6.4673,-6.4657,-6.4769,-6.48,-6.4888,-6.4911,-6.4934,-6.4951,-6.4926,-6.5026,-6.5035,-6.5044,-6.5076,-6.5088,-6.4942,-6.4942,-6.4942,-6.4941,0,-6.4407,-6.4464,-6.4507,-6.4572,-6.461,-6.467,-6.4697,-6.4734,-6.4741,-6.4763,-6.4838,-6.4877,-6.4935,-6.4956,-6.4962,-6.5046,-6.5036,-6.5023,-6.4992,-6.5058,-6.5088,-6.51,-6.4945,-6.4944,-6.4944,-6.4943,0,0,-6.4488,-6.4565,-6.4581,-6.4611,-6.467,-6.4714,-6.4775,-6.4834,-6.4865,-6.491,-6.4962,-6.5038,-6.5027,-6.506,-6.507,-6.5111,-6.5182,-6.5093,-6.5094,-6.5109,-6.5277,-6.5287,-6.5301,-6.518,-6.5182,-6.5184,-6.5274,0,-6.4568,-6.4677,-6.4697,-6.4792,-6.4846,-6.485,-6.4903,-6.4944,-6.4968,-6.5016,-6.5041,-6.5095,-6.5077,-6.5097,-6.5137,-6.5164,-6.5216,-6.5158,-6.5227,-6.523,-6.5216,-6.5316,-6.5326,-6.5409,-6.5286,-6.5288,-6.5289,0,-6.4675,-6.4726,-6.4827,-6.4881,-6.4905,-6.4952,-6.5009,-6.5056,-6.5104,-6.5118,-6.5157,-6.5163,-6.5226,-6.5194,-6.5281,-6.5242,-6.5272,-6.529,-6.5293,-6.53,-6.5263,-6.5326,-6.5435,-6.5448,-6.5308,-6.5306,-6.5305,0,-6.4726,-6.4819,-6.4892,-6.4918,-6.4983,-6.5017,-6.5045,-6.5091,-6.5126,-6.5176,-6.5199,-6.5254,-6.5285,-6.5328,-6.5349,-6.5324,-6.5436,-6.5405,-6.545,-6.5449,-6.5472,-6.547,-6.5588,-6.5491,-6.5491,-6.5491,-6.5491,0,-6.4813,-6.4875,-6.4916,-6.4961,-6.5031,-6.5054,-6.5122,-6.5149,-6.5191,-6.5241,-6.5247,-6.5294,-6.532,-6.537,-6.5388,-6.5458,-6.5472,-6.5485,-6.5489,-6.5485,-6.5483,-6.5504,-6.5499,-6.5494,-6.5494,-6.5493,-6.5492,0,-6.4881,-6.4911,-6.4991,-6.5047,-6.5063,-6.5112,-6.5159,-6.5203,-6.5228,-6.5291,-6.5307,-6.5345,-6.5405,-6.5432,-6.5505,-6.5517,-6.5598,-6.5597,-6.5582,-6.5584,-6.5627,-6.5623,-6.5762,-6.5782,-6.5672,-6.5673,-6.5674,0,-6.4934,-6.4983,-6.5045,-6.508,-6.511,-6.5166,-6.5203,-6.5228,-6.5266,-6.5326,-6.5363,-6.5424,-6.5474,-6.557,-6.5603,-6.566,-6.5661,-6.5706,-6.5669,-6.5664,-6.5663,-6.566,-6.5665,-6.5712,-6.5714,-6.5714,-6.5715,0,-6.5027,-6.5041,-6.5094,-6.5154,-6.5199,-6.5247,-6.5293,-6.5321,-6.5354,-6.5396,-6.5459,-6.5498,-6.5575,-6.5636,-6.5695,-6.5724,-6.5725,-6.5727,-6.574,-6.5736,-6.5726,-6.5733,-6.5601,-6.5723,-6.5722,-6.5722,-6.5721,-6.5721,-6.509,-6.5134,-6.5185,-6.5246,-6.5284,-6.5328,-6.5373,-6.5405,-6.5458,-6.5524,-6.5535,-6.5603,-6.5651,-6.5732,-6.5763,-6.5816,-6.5805,-6.5824,-6.5829,-6.5833,-6.5836,-6.5718,-6.5827,-6.5826,-6.5826,-6.5826,-6.5826,0,-6.5184,-6.5218,-6.5273,-6.534,-6.5388,-6.5387,-6.544,-6.548,-6.554,-6.5586,-6.5636,-6.5709,-6.5769,-6.5809,-6.5869,-6.5904,-6.5906,-6.5919,-6.5916,-6.5923,-6.5842,-6.5825,-6.5916,-6.5916,-6.5916,-6.5916,-6.5916,-6.5916,-6.5238,-6.5313,-6.5333,-6.5427,-6.5461,-6.5529,-6.5559,-6.56,-6.5637,-6.572,-6.577,-6.5796,-6.584,-6.5905,-6.5959,-6.597,-6.5992,-6.6005,-6.6015,-6.5938,-6.5929,-6.592,-6.5904,-6.601,-6.601,-6.6091,-6.6092,-6.6093]}]]